sat.trackr.live / text

‹ back to catalog

ONEWEB-0410

NORAD 51622 · 2022-012A

PAYLOAD ACTIVE UNKNOWN

§ Identity

Operator
Country
UK
Launch date
2022-02-10
Launch site
FRGUI
Launch vehicle
Mass (kg)
RCS (m²)

Purposes: comms

External: N2YO · Heavens-Above · Gunter

§ Orbital elements

Epoch: 2026-09-20T05:07:19.080192Z

Period
109.29 min
Inclination
87.9198°
Eccentricity
0.0002837
Mean motion
13.17648698 rev/d
Perigee alt
1,191.6 km
Apogee alt
1,195.9 km
Semi-major
7,571.9 km
B*
-5.6226e-4
RAAN
346.9938°
Arg perigee
123.4222°
Mean anomaly
236.7181°
Rev number
22,621

§ Raw data

ONEWEB-04101 51622U 22012A   26263.21341528 -.00000205  00000+0 -56226-3 0  99902 51622  87.9198 346.9938 0002837 123.4222 236.7181 13.17648698226212

JSON: /api/v1/satellites/51622 · /tle

For live sub-satellite position, see the globe view (requires WebGL).

§ Visibility from observer

Set your observer location to see the next 7 days of passes ≥ 10°. The values pass through the URL so the page stays shareable.

No JS? Fill the form by hand. The geolocation button needs JavaScript.